STARLINK-36898, 68002

Orbit data source: Space-Track

STARLINK-36898, 68002 is a payload satellite owned by SpaceX/Seattle (US) in LEO that was launched on Fri, 27 Feb 2026 UTC via an FALCON 9 launch vehicle from the Air Force Eastern Test Range (AFETR). Payload-class satellites include a variety of spacecraft equipped with specific instruments for various scientific and technological missions. These include communications satellites like Starlink; space stations such as the ISS; scientific satellites like the Hubble; Earth observation satellites from companies like Planet Labs, Umbra, and HawkEye 360; GPS; miniature CubeSats for education and research; and military/defense satellites.

Loading next visibility...
Identifier
68002, 2026-039S
Orbit
LEO
Country
Flag of USUS
Related business
Manufacturer
SpaceX/Seattle
Mission
Operational Commercial Communications
Bus & Motor
STARLINK V2MO, Unknown motor
Mass
575 kg wet, ~530 kg dry
Launch date (UTC)
2026-02-27 (2 months ago)
Launch vehicle
FALCON 9
Launch site
Air Force Eastern Test Range (AFETR)
Object type
Payload
Rocket body
Debris
Shape & HBR
Box + 2 Pan, 17.7 m
Radar Cross Section
36.964 m²

Expand to show TLE details & history
Last TLE update: 2 days ago

TLE from 2 days ago
0 STARLINK-36898
1 68002U 26039S   26110.23419331  .00014268  00000-0  52692-3 0  9990
2 68002  42.9969 174.6069 0000415  68.8046 291.2850 15.27585067  8058
Epoch: 2026-04-20T05:37Z
TLE epoch observation values (Epoch: 2026-04-20T05:37:14.301Z)
Latitude
-0.00003°
Longitude
-118.02998°
Altitude
482.706 km
Speed
7.626 km/s
True Right ascension
11h 38m 25s
True Declination
0° 00' 00"
Sunlit
Object was in full shadow at epoch
Visualization orbit readout
Latitude
Unknown
Longitude
Unknown
Altitude
Unknown
Speed
Unknown
Apparent Right ascension
Unknown
Apparent Declination
Unknown
Sunlit
N/A
Visualization observer readout
Local Sidereal Time
18:10:11
Azimuth
Unknown
Elevation
Unknown
Doppler factor
Unknown
Orbital elements
Apogee altitude
485.264 km
Perigee altitude
484.695 km
Semi-major axis
6,863.117 km
Eccentricity
0.00004
Inclination
42.9969°
RAAN
174.6069°
Arg. of periapsis
68.8046°
True anomaly
291.28057°
Mean anomaly
291.285°
Eccentric anomaly
291.28278°
Mean motion
3.81734 °/min
Orbital period
94.31 mins
BSTAR
0.00052692
Loading maneuver chart data...
Computing Atmospheric mass density...
Loading historical data...
Loading historical data...
Loading historical data...
Loading historical data...
Loading historical data...
Loading historical data...
Loading historical data...

Documentation

Showing up to 5 results
|